Location: McFarlands Corners
(41.4117°N, 81.3382°W)
Time: 05:03:55
(UTC+00:00)

A-11 Canister half - Pass Details

Date: 17 February 2026
Orbit: 1524 x 1683 km, 47.3° (Epoch: 14 March)

Event Time Altitude Azimuth Distance (km) Brightness Sun altitude
Rises 23:19:02 0° 257° (WSW) 4,709 14.9 -4.0°
Reaches altitude 10° 23:22:08 10° 260° (W) 3,713 13.0 -4.5°
Maximum altitude 23:31:28 70° 344° (NNW) 1,607 9.2 -6.3°
Drops below altitude 10° 23:40:46 10° 68° (ENE) 3,701 10.4 -8.0°
Enters shadow 23:41:17 - 69° (ENE) 3,866 10.5 -8.1°
